THORAD DELTA 1 DEB, 8170

Orbit data source: Space-Track

THORAD DELTA 1 DEB, 8170 is space debris in SSO originally from a launch on Fri, 15 Nov 1974 UTC launched from the Air Force Western Test Range (AFWTR). Debris objects in space refer to the collection of defunct objects orbiting the Earth. Examples of debris include non-operational satellites, rocket bodies, and fragments generated from explosions, collisions, or faulty payload assembly.

Loading next visibility...
Identifier
8170, 1974-089AL
Orbit
SSO
Country
Flag of USUS
Related business
Manufacturer
Unknown
Mission
Spacecraft
Bus & Motor
Unknown
Mass
Unknown
Launch date (UTC)
1974-11-15 (52 years ago)
Launch vehicle
Unknown
Launch site
Air Force Western Test Range (AFWTR)
Object type
Payload
Rocket body
Debris
Shape & HBR
Unknown shape, 0.1 m
Radar Cross Section
Medium (>0.1 m² and <1 m²)

Expand to show TLE details & history
Last TLE update: 15 hours ago

TLE from 15 hours ago
0 THORAD DELTA 1 DEB
1 08170U 74089AL  26237.09102787  .00014389  00000-0  59409-2 0  9992
2 08170 101.6030 295.3583 0055898 210.1021 180.6454 14.26042373499828
Epoch: 2026-08-25T02:11Z
TLE epoch observation values (Epoch: 2026-08-25T02:11:04.807Z)
Latitude
30.10024°
Longitude
-77.57466°
Altitude
848.813 km
Speed
7.41 km/s
True Right ascension
19h 14m 14s
True Declination
29° 57' 11"
Sunlit
Object was in full shadow at epoch
Visualization orbit readout
Latitude
Unknown
Longitude
Unknown
Altitude
Unknown
Speed
Unknown
Apparent Right ascension
Unknown
Apparent Declination
Unknown
Sunlit
N/A
Visualization observer readout
Local Sidereal Time
08:09:58
Azimuth
Unknown
Elevation
Unknown
Doppler factor
Unknown
Orbital elements
Apogee altitude
842.439 km
Perigee altitude
762.164 km
Semi-major axis
7,180.439 km
Eccentricity
0.00559
Inclination
101.603°
RAAN
295.3583°
Arg. of periapsis
210.1021°
True anomaly
180.63823°
Mean anomaly
180.6454°
Eccentric anomaly
180.64181°
Mean motion
3.56711 °/min
Orbital period
100.92 mins
BSTAR
0.0059409
Loading maneuver chart data...
Computing Atmospheric mass density...

Documentation

Showing up to 5 results
|